DateTimeUTC,F1_A11,F1_S11,BsB_S11,BsG_S11,BsR_S11,BbsB_S11,BbsG_S11,BbsR_S11,BaB_A11,BaG_A11,BaR_A11,Tu_S11,T_S11,Uu_S11,U_S11,P_S11,T1_A11
2021-04-13T07:00:00Z,00000200,21000000,,,,,,,-000.26,-000.13,-000.06,17.6,24.9,00.3,00.2,0662.2,31.1
2021-04-13T07:01:00Z,00000200,21000000,,,,,,,-000.33,-000.30,-000.22,17.6,24.9,00.3,00.2,0662.2,31.1
2021-04-13T07:02:00Z,00000200,21000000,,,,,,,-000.02,0000.18,-000.13,17.6,24.9,00.3,00.2,0662.2,31.1
2021-04-13T07:03:00Z,00000200,61000000,,,,,,,0000.67,0000.22,0000.46,17.6,24.9,00.3,00.2,0662.2,31.1
2021-04-13T07:04:00Z,00000200,41000000,-000.14,-000.07,-000.03,-000.13,0000.17,0000.02,-000.40,0000.03,-000.09,17.7,24.7,00.3,00.2,0663.0,31.1
2021-04-13T07:05:00Z,00000200,01000000,0000.02,-000.02,0000.10,0000.10,0000.11,-000.05,0000.22,0000.05,-000.19,17.8,24.6,00.5,00.3,0663.1,31.1
2021-04-13T07:06:00Z,00000200,01000000,-000.29,-000.33,0000.22,-000.10,-000.01,0000.12,0000.64,0000.19,0000.27,17.8,24.6,00.5,00.3,0663.1,31.1
2021-04-13T07:07:00Z,00000200,01000000,-000.23,0000.41,0000.01,0000.19,-000.03,0000.09,-000.33,-000.19,0000.19,17.8,24.6,00.6,00.4,0663.0,31.1
2021-04-13T07:08:00Z,00000200,01000000,0000.26,0000.07,0000.28,0000.29,0000.16,0000.30,0000.29,0000.15,-000.03,17.8,24.6,00.6,00.4,0663.0,31.1
2021-04-13T07:09:00Z,00000200,01000000,0000.53,0000.22,0000.15,-000.28,0000.16,-000.10,-000.03,0000.10,-000.00,17.8,24.6,00.6,00.4,0663.0,31.1
2021-04-13T07:10:00Z,00000200,01000000,0000.07,0000.09,-000.20,-000.01,0000.03,-000.15,0000.09,0000.44,0000.41,17.8,24.6,00.6,00.4,0663.0,31.1
2021-04-13T07:11:00Z,00000200,01000000,-000.19,-000.16,0000.18,0000.02,0000.06,0000.13,-000.08,-000.27,-000.27,17.8,24.6,00.7,00.5,0663.0,31.1
2021-04-13T07:12:00Z,00000200,01000000,0000.45,-000.06,0000.08,0000.12,0000.16,0000.19,0000.10,-000.18,0000.06,17.8,24.6,00.7,00.4,0663.0,31.1
2021-04-13T07:13:00Z,00000200,01000000,0000.22,0000.40,0000.21,-000.60,0000.10,-000.01,0000.07,0000.39,0000.07,17.8,24.6,00.7,00.4,0663.0,31.1
2021-04-13T07:14:00Z,00000200,01000000,-000.49,0000.29,0000.23,-000.20,0000.07,0000.12,-000.06,-000.26,-000.04,17.8,24.6,00.5,00.3,0663.0,31.1
2021-04-13T07:15:00Z,00000200,01000000,-000.15,0000.02,0000.07,-000.09,0000.18,0000.11,0000.10,-000.08,0000.19,17.8,24.6,00.6,00.4,0662.9,31.1
2021-04-13T07:16:00Z,00000200,01000000,-000.97,0000.01,0000.00,-000.04,0000.01,0000.16,0000.06,0000.40,-000.27,17.8,24.6,00.7,00.4,0663.0,31.1
2021-04-13T07:17:00Z,00000200,01000000,-000.33,0000.09,-000.16,-000.20,0000.15,-000.07,0000.05,0000.00,0000.35,17.8,24.6,00.6,00.4,0663.0,31.1
2021-04-13T07:18:00Z,00000200,01000000,-000.03,0000.19,0000.13,0000.45,0000.14,0000.23,0000.03,-000.02,0000.08,17.8,24.6,00.6,00.4,0662.9,31.1
2021-04-13T07:19:00Z,00000200,01000000,-000.26,-000.02,0000.09,0000.04,-000.11,0000.08,0000.47,0000.35,-000.14,17.8,24.6,00.7,00.5,0662.9,31.1
2021-04-13T07:20:00Z,00000200,01000000,-000.04,0000.10,0000.24,0000.22,-000.08,0000.15,-000.24,0000.27,0000.30,17.8,24.6,00.7,00.5,0662.9,31.1
2021-04-13T07:21:00Z,00000200,01000000,-000.57,0000.25,-000.25,0000.13,0000.27,0000.00,0000.28,-000.26,-000.17,17.8,24.6,00.8,00.5,0662.9,31.1
2021-04-13T07:22:00Z,00000200,01000000,0000.13,-000.05,-000.01,-000.62,-000.04,-000.01,-000.01,0000.05,-000.15,17.8,24.6,00.7,00.4,0662.9,31.1
2021-04-13T07:23:00Z,00000200,01000000,-000.14,0000.28,0000.27,-000.14,-000.17,0000.36,0000.17,0000.36,0000.38,17.8,24.6,00.7,00.5,0662.9,31.1
2021-04-13T07:24:00Z,00000200,01000000,-000.54,0000.05,0000.05,-000.32,0000.17,-000.15,-000.28,-000.38,-000.04,17.8,24.6,00.7,00.5,0662.8,31.1
2021-04-13T07:25:00Z,00000200,01000000,0000.23,0000.04,0000.21,-000.07,0000.36,0000.18,0000.29,0000.48,0000.10,17.8,24.6,00.9,00.6,0662.8,31.1
2021-04-13T07:26:00Z,00000200,01000000,-000.07,0000.07,-000.32,-000.23,0000.08,0000.04,-000.09,-000.06,-000.27,17.8,24.6,00.8,00.5,0662.9,31.1
2021-04-13T07:27:00Z,00000200,01000000,-000.07,0000.05,0000.12,0000.37,0000.29,0000.06,0000.12,-000.32,-000.29,17.8,24.6,00.8,00.6,0662.8,31.1
2021-04-13T07:28:00Z,00000200,01000000,0000.03,0000.04,0000.10,0000.17,0000.21,0000.30,-000.02,-000.22,0000.26,17.8,24.6,00.9,00.6,0662.9,31.1
2021-04-13T07:29:00Z,00000200,01000000,0000.39,-000.27,-000.26,0000.00,0000.07,-000.13,-000.11,0000.36,0000.16,17.8,24.6,00.8,00.5,0662.8,31.1
2021-04-13T07:30:00Z,00000200,01000000,0000.28,0000.08,0000.10,-000.13,-000.07,0000.15,-000.00,0000.27,0000.37,17.8,24.6,00.9,00.6,0662.9,31.1
2021-04-13T07:31:00Z,00000200,01000000,0000.03,-000.14,0000.34,-000.62,0000.31,-000.09,0000.29,-000.15,0000.11,17.8,24.6,00.9,00.6,0662.8,31.1
2021-04-13T07:32:00Z,00000200,01000000,0000.08,-000.08,-000.08,0000.28,0000.16,-000.08,0000.38,0000.85,-000.16,17.8,24.6,00.8,00.5,0662.8,31.1
2021-04-13T07:33:00Z,00000200,01000000,-000.46,0000.03,-000.09,0000.05,0000.11,0000.15,-000.37,-000.29,0000.41,17.8,24.6,00.9,00.6,0662.8,31.1
2021-04-13T07:34:00Z,00000200,01000000,0000.27,0000.08,0000.20,-000.37,-000.12,0000.01,0000.73,0000.06,-000.10,17.8,24.6,00.9,00.6,0662.8,31.1
2021-04-13T07:35:00Z,00000200,01000000,0000.22,-000.02,0000.14,0000.15,0000.06,0000.07,0000.17,0000.31,0000.37,17.8,24.5,01.0,00.7,0662.7,31.1
2021-04-13T07:36:00Z,00000200,01000000,-000.07,-000.12,0000.02,0000.01,0000.19,-000.21,-000.40,0000.28,-000.38,17.8,24.6,01.0,00.6,0662.8,31.1
2021-04-13T07:37:00Z,00000200,01000000,-000.54,-000.28,-000.14,-000.41,0000.26,-000.25,0000.49,-000.10,-000.03,17.8,24.6,01.0,00.7,0662.8,31.1
2021-04-13T07:38:00Z,00000200,01000000,0000.51,-000.02,-000.00,-000.02,0000.28,-000.09,0000.06,-000.61,0000.18,17.8,24.6,01.0,00.6,0662.7,31.1
2021-04-13T07:39:00Z,00000200,01000000,0000.05,-000.25,0000.29,-000.15,0000.06,0000.33,0000.06,0001.07,0000.00,17.8,24.6,01.0,00.7,0662.7,31.1
2021-04-13T07:40:00Z,00000200,01000000,0000.30,-000.07,-000.00,0000.09,-000.05,0000.26,-000.12,-000.24,0000.07,17.8,24.6,01.0,00.7,0662.8,31.1
2021-04-13T07:41:00Z,00000200,01000000,-000.12,0000.14,0000.39,0000.19,0000.20,0000.24,0000.40,0000.11,0000.23,17.8,24.5,01.0,00.7,0662.7,31.1
2021-04-13T07:42:00Z,00000200,01000000,-000.18,0000.01,-000.07,0000.34,0000.10,0000.06,0000.26,0000.05,0000.03,17.8,24.5,01.0,00.7,0662.8,31.1
2021-04-13T07:43:00Z,00000200,01000000,-000.19,-000.09,-000.04,-000.06,0000.16,0000.10,-000.23,-000.16,0000.01,17.8,24.5,01.0,00.7,0662.7,31.1
2021-04-13T07:44:00Z,00000200,01000000,0000.30,0000.19,0000.14,0000.30,0000.09,0000.16,0000.16,0000.38,0000.03,17.8,24.5,01.0,00.7,0662.8,31.1
2021-04-13T07:45:00Z,00000200,01000000,-000.38,-000.08,0000.00,-000.19,0000.30,0000.16,-000.05,-000.14,-000.06,17.8,24.6,01.0,00.7,0662.7,31.1
2021-04-13T07:46:00Z,00000200,01000000,-000.41,0000.09,0000.12,0000.09,0000.04,0000.35,-000.26,0000.05,0000.25,17.8,24.6,01.1,00.7,0662.8,31.1
2021-04-13T07:47:00Z,00000200,01000000,0000.06,-000.09,0000.18,0000.10,0000.05,0000.07,0000.37,0000.09,0000.09,17.8,24.6,01.0,00.7,0662.7,31.1
2021-04-13T07:48:00Z,00000200,01000000,-000.07,0000.22,0000.21,0000.22,0000.09,0000.47,-000.30,0000.16,-000.17,17.8,24.5,01.0,00.7,0662.7,31.1
2021-04-13T07:49:00Z,00000200,01000000,-000.55,0000.11,0000.11,-000.33,0000.19,0000.23,0000.27,0000.14,0000.23,17.8,24.5,01.0,00.7,0662.7,31.1
2021-04-13T07:50:00Z,00000200,01000000,-000.04,-000.05,0000.08,-000.28,0000.13,0000.19,0000.17,-000.25,-000.25,17.8,24.6,01.1,00.7,0662.7,31.1
2021-04-13T07:51:00Z,00000200,01000000,0000.38,0000.26,-000.01,-000.40,0000.24,-000.01,-000.15,0000.06,0000.20,17.8,24.6,01.1,00.7,0662.7,31.1
2021-04-13T07:52:00Z,00000200,01000000,-000.14,0000.05,0000.07,-000.19,0000.16,0000.11,0000.08,-000.42,0000.05,17.8,24.6,01.1,00.7,0662.7,31.1
2021-04-13T07:53:00Z,00000200,01000000,-000.26,-000.14,0000.16,-000.10,0000.27,0000.07,0000.08,0000.15,-000.18,17.8,24.6,01.1,00.7,0662.7,31.1
2021-04-13T07:54:00Z,00000200,01000000,-000.75,-000.10,0000.13,0000.03,0000.16,0000.35,-000.15,0000.35,-000.01,17.8,24.6,01.0,00.7,0662.7,31.1
2021-04-13T07:55:00Z,00000200,01000000,0000.26,-000.17,0000.40,0000.08,0000.04,0000.11,-000.01,0000.20,0000.11,17.8,24.5,01.1,00.7,0662.7,31.1
2021-04-13T07:56:00Z,00000200,01000000,0000.17,0000.02,0000.23,-000.23,-000.19,0000.08,0000.23,-000.21,0000.28,17.8,24.5,01.0,00.7,0662.7,31.1
2021-04-13T07:57:00Z,00000200,41000000,,,,,,,-000.06,-000.31,-000.20,17.9,24.6,00.6,00.4,0662.7,31.1
2021-04-13T07:58:00Z,00000200,61000000,,,,,,,-000.15,0000.10,0000.18,17.6,24.7,00.9,00.6,0661.7,31.1
2021-04-13T07:59:00Z,00000200,21000000,,,,,,,0000.21,0000.34,-000.07,17.6,24.8,00.9,00.6,0661.7,31.1
